Location: Amsterdam
(30.7274°N, 84.4357°W)
Time: 15:24:48
(UTC+00:00)

Vanguard 1 Rocket - Pass Details

Date: 18 February 2026
Orbit: 653 x 4214 km, 34.3° (Epoch: 6 March)

Event Time Altitude Azimuth Distance (km) Brightness Sun altitude
Rises 03:20:34 0° 284° (WNW) 7,793 12.8 -50.2°
Reaches altitude 10° 03:27:05 10° 274° (W) 7,111 12.3 -51.5°
Maximum altitude 03:45:21 26° 228° (SW) 6,062 11.5 -55.1°
Enters shadow 03:57:54 17° 191° (S) 6,312 11.4 -57.5°
